Year,Month,Day,Hour,Minute,Value (Times are PST for temperature in C)
2009,02,03,12,00,6.50
2009,02,03,12,01,6.50
2009,02,03,12,02,6.60
2009,02,03,12,03,6.60
2009,02,03,12,04,6.60
2009,02,03,12,05,6.60
2009,02,03,12,06,6.70
2009,02,03,12,07,6.80
2009,02,03,12,08,6.80
2009,02,03,12,09,6.70
2009,02,03,12,10,6.60
2009,02,03,12,11,6.60
2009,02,03,12,12,6.60
2009,02,03,12,13,6.60
2009,02,03,12,14,6.60
2009,02,03,12,15,6.60
2009,02,03,12,16,6.60
2009,02,03,12,17,6.60
2009,02,03,12,18,6.60
2009,02,03,12,19,6.60
2009,02,03,12,20,6.60
2009,02,03,12,21,6.60
2009,02,03,12,22,6.70
2009,02,03,12,23,6.70
2009,02,03,12,24,6.70
2009,02,03,12,25,6.70
2009,02,03,12,26,6.70
2009,02,03,12,27,6.80
2009,02,03,12,28,6.80
2009,02,03,12,29,6.80
2009,02,03,12,30,6.80
2009,02,03,12,31,6.90
2009,02,03,12,32,6.80
2009,02,03,12,33,6.80
2009,02,03,12,34,6.80
2009,02,03,12,35,6.80
2009,02,03,12,36,6.80
2009,02,03,12,37,6.80
2009,02,03,12,38,6.80
2009,02,03,12,39,6.80
2009,02,03,12,40,6.80
2009,02,03,12,41,6.70
2009,02,03,12,42,6.70
2009,02,03,12,43,6.80
2009,02,03,12,44,6.80
2009,02,03,12,45,6.80
2009,02,03,12,46,6.80
2009,02,03,12,47,6.80
2009,02,03,12,48,6.70
2009,02,03,12,49,6.70
2009,02,03,12,50,6.70
2009,02,03,12,51,6.70
2009,02,03,12,52,6.80
2009,02,03,12,53,6.80
2009,02,03,12,54,6.90
2009,02,03,12,55,7.00
2009,02,03,12,56,7.10
2009,02,03,12,57,7.10
2009,02,03,12,58,7.10
2009,02,03,12,59,7.10
2009,02,03,13,00,7.10
2009,02,03,13,01,7.10
2009,02,03,13,02,7.00
2009,02,03,13,03,7.00
2009,02,03,13,04,7.00
2009,02,03,13,05,7.00
2009,02,03,13,06,7.00
2009,02,03,13,07,7.10
2009,02,03,13,08,7.10
2009,02,03,13,09,7.20
2009,02,03,13,10,7.20
2009,02,03,13,11,7.20
2009,02,03,13,12,7.30
2009,02,03,13,13,7.30
2009,02,03,13,14,7.30
2009,02,03,13,15,7.40
2009,02,03,13,16,7.40
2009,02,03,13,17,7.50
2009,02,03,13,18,7.50
2009,02,03,13,19,7.60
2009,02,03,13,20,7.60
2009,02,03,13,21,7.70
2009,02,03,13,22,7.70
2009,02,03,13,23,7.70
2009,02,03,13,24,7.60
2009,02,03,13,25,7.60
2009,02,03,13,26,7.60
2009,02,03,13,27,7.60
2009,02,03,13,28,7.60
2009,02,03,13,29,7.60
2009,02,03,13,30,7.50
2009,02,03,13,31,7.40
2009,02,03,13,32,7.30
2009,02,03,13,33,7.20
2009,02,03,13,34,7.20
2009,02,03,13,35,7.20
2009,02,03,13,36,7.10
2009,02,03,13,37,7.10
2009,02,03,13,38,7.10
2009,02,03,13,39,7.10
2009,02,03,13,40,7.10
2009,02,03,13,41,7.10
2009,02,03,13,42,7.10
2009,02,03,13,43,7.10
2009,02,03,13,44,7.10
2009,02,03,13,45,7.10
2009,02,03,13,46,7.10
2009,02,03,13,47,7.10
2009,02,03,13,48,7.10
2009,02,03,13,49,7.10
2009,02,03,13,50,7.10
2009,02,03,13,51,7.20
2009,02,03,13,52,7.20
2009,02,03,13,53,7.20
2009,02,03,13,54,7.20
2009,02,03,13,55,7.20
2009,02,03,13,56,7.10
2009,02,03,13,57,7.10
2009,02,03,13,58,7.10
2009,02,03,13,59,7.10
2009,02,03,14,00,7.20
2009,02,03,14,01,7.20
2009,02,03,14,02,7.30
2009,02,03,14,03,7.40
2009,02,03,14,04,7.50
2009,02,03,14,05,7.60
2009,02,03,14,06,7.60
2009,02,03,14,07,7.60
2009,02,03,14,08,7.60
2009,02,03,14,09,7.60
2009,02,03,14,10,7.60
2009,02,03,14,11,7.60
2009,02,03,14,12,7.60
2009,02,03,14,13,7.60
2009,02,03,14,14,7.50
2009,02,03,14,15,7.60
2009,02,03,14,16,7.60
2009,02,03,14,17,7.60
2009,02,03,14,18,7.60
2009,02,03,14,19,7.60
2009,02,03,14,20,7.60
2009,02,03,14,21,7.60
2009,02,03,14,22,7.50
2009,02,03,14,23,7.40
2009,02,03,14,24,7.40
2009,02,03,14,25,7.40
2009,02,03,14,26,7.30
2009,02,03,14,27,7.30
2009,02,03,14,28,7.30
2009,02,03,14,29,7.40
2009,02,03,14,30,7.40
2009,02,03,14,31,7.40
2009,02,03,14,32,7.50
2009,02,03,14,33,7.40
2009,02,03,14,34,7.40
2009,02,03,14,35,7.40
2009,02,03,14,36,7.40
2009,02,03,14,37,7.30
2009,02,03,14,38,7.30
2009,02,03,14,39,7.40
2009,02,03,14,40,7.40
2009,02,03,14,41,7.40
2009,02,03,14,42,7.40
2009,02,03,14,43,7.50
2009,02,03,14,44,7.50
2009,02,03,14,45,7.60
2009,02,03,14,46,7.60
2009,02,03,14,47,7.70
2009,02,03,14,48,7.70
2009,02,03,14,49,7.70
2009,02,03,14,50,7.70
2009,02,03,14,51,7.60
2009,02,03,14,52,7.60
2009,02,03,14,53,7.60
2009,02,03,14,54,7.50
2009,02,03,14,55,7.40
2009,02,03,14,56,7.40
2009,02,03,14,57,7.30
2009,02,03,14,58,7.30
2009,02,03,14,59,7.20
2009,02,03,15,00,7.20
2009,02,03,15,01,7.20
2009,02,03,15,02,7.20
2009,02,03,15,03,7.20
2009,02,03,15,04,7.20
2009,02,03,15,05,7.20
2009,02,03,15,06,7.20
2009,02,03,15,07,7.20
2009,02,03,15,08,7.20
2009,02,03,15,09,7.20
2009,02,03,15,10,7.30
2009,02,03,15,11,7.30
2009,02,03,15,12,7.30
2009,02,03,15,13,7.30
2009,02,03,15,14,7.30
2009,02,03,15,15,7.40
2009,02,03,15,16,7.40
2009,02,03,15,17,7.40
2009,02,03,15,18,7.40
2009,02,03,15,19,7.50
2009,02,03,15,20,7.50
2009,02,03,15,21,7.50
2009,02,03,15,22,7.50
2009,02,03,15,23,7.50
2009,02,03,15,24,7.50
2009,02,03,15,25,7.50
2009,02,03,15,26,7.50
2009,02,03,15,27,7.50
2009,02,03,15,28,7.50
2009,02,03,15,29,7.50
2009,02,03,15,30,7.50
2009,02,03,15,31,7.60
2009,02,03,15,32,7.60
2009,02,03,15,33,7.60
2009,02,03,15,34,7.50
2009,02,03,15,35,7.50
2009,02,03,15,36,7.40
2009,02,03,15,37,7.40
2009,02,03,15,38,7.30
2009,02,03,15,39,7.30
2009,02,03,15,40,7.20
2009,02,03,15,41,7.20
2009,02,03,15,42,7.20
2009,02,03,15,43,7.20
2009,02,03,15,44,7.20
2009,02,03,15,45,7.20
2009,02,03,15,46,7.20
2009,02,03,15,47,7.20
2009,02,03,15,48,7.20
2009,02,03,15,49,7.20
2009,02,03,15,50,7.20
2009,02,03,15,51,7.20
2009,02,03,15,52,7.20
2009,02,03,15,53,7.20
2009,02,03,15,54,7.20
2009,02,03,15,55,7.20
2009,02,03,15,56,7.20
2009,02,03,15,57,7.20
2009,02,03,15,58,7.20
2009,02,03,15,59,7.20
2009,02,03,16,00,7.20
2009,02,03,16,01,7.20
2009,02,03,16,02,7.20
2009,02,03,16,03,7.20
2009,02,03,16,04,7.20
2009,02,03,16,05,7.20
2009,02,03,16,06,7.20
2009,02,03,16,07,7.20
2009,02,03,16,08,7.20
2009,02,03,16,09,7.20
2009,02,03,16,10,7.20
2009,02,03,16,11,7.20
2009,02,03,16,12,7.20
2009,02,03,16,13,7.20
2009,02,03,16,14,7.20
2009,02,03,16,15,7.20
2009,02,03,16,16,7.10
2009,02,03,16,17,7.10
2009,02,03,16,18,7.10
2009,02,03,16,19,7.10
2009,02,03,16,20,7.00
2009,02,03,16,21,7.00
2009,02,03,16,22,7.00
2009,02,03,16,23,6.90
2009,02,03,16,24,6.90
2009,02,03,16,25,6.90
2009,02,03,16,26,6.80
2009,02,03,16,27,6.80
2009,02,03,16,28,6.80
2009,02,03,16,29,6.80
2009,02,03,16,30,6.70
2009,02,03,16,31,6.70
2009,02,03,16,32,6.70
2009,02,03,16,33,6.70
2009,02,03,16,34,6.60
2009,02,03,16,35,6.60
2009,02,03,16,36,6.60
2009,02,03,16,37,6.50
2009,02,03,16,38,6.50
2009,02,03,16,39,6.50
2009,02,03,16,40,6.40
2009,02,03,16,41,6.40
2009,02,03,16,42,6.40
2009,02,03,16,43,6.30
2009,02,03,16,44,6.30
2009,02,03,16,45,6.30
2009,02,03,16,46,6.30
2009,02,03,16,47,6.30
2009,02,03,16,48,6.30
2009,02,03,16,49,6.30
2009,02,03,16,50,6.20
2009,02,03,16,51,6.20
2009,02,03,16,52,6.20
2009,02,03,16,53,6.20
2009,02,03,16,54,6.20
2009,02,03,16,55,6.20
2009,02,03,16,56,6.20
2009,02,03,16,57,6.20
2009,02,03,16,58,6.10
2009,02,03,16,59,6.10
2009,02,03,17,00,6.10
2009,02,03,17,01,6.10
2009,02,03,17,02,6.00
2009,02,03,17,03,6.00
2009,02,03,17,04,6.00
2009,02,03,17,05,6.00
2009,02,03,17,06,5.90
2009,02,03,17,07,5.90
2009,02,03,17,08,5.90
2009,02,03,17,09,5.90
2009,02,03,17,10,5.90
2009,02,03,17,11,5.90
2009,02,03,17,12,5.90
2009,02,03,17,13,5.90
2009,02,03,17,14,5.90
2009,02,03,17,15,5.90
2009,02,03,17,16,5.90
2009,02,03,17,17,5.90
2009,02,03,17,18,5.90
